Location: Baumgartsau
(48.4586°N, 14.0864°E)
Time: 09:29:23
(UTC+00:00)

COSMOS 2428 - Pass Details

Date: 09 April 2020
Orbit: 846 x 856 km, 70.9° (Epoch: 24 May)

Event Time Altitude Azimuth Distance (km) Brightness Sun altitude
Rises 22:55:51 0° 335° (NNW) 3,426 6.8 -33.5°
Reaches altitude 10° 22:58:31 10° 343° (NNW) 2,485 5.9 -33.5°
Enters shadow 23:03:39 37° 48° (NE) 1,300 3.9 -33.5°
